Location: Unspecified
(44.4377°N, 88.0525°W)
Time: 01:33:51
(UTC-05:00)

Resurs 1-4 Rocket - Visible Passes

Search period start: 08 July 2015 00:00
Search period end: 18 July 2015 00:00
Orbit: 801 x 814 km, 98.4° (Epoch: 07 July)

Date Brightness Start Highest point End Pass type
(mag) Time Alt. Az. Time Alt. Az. Time Alt. Az.
08 Jul 4.5 03:07:53 10° NE 03:11:14 17° E 03:14:46 10° SE visible
09 Jul 2.3 04:21:52 10° NNE 04:27:12 79° ESE 04:32:29 10° S visible
10 Jul 3.0 03:57:31 10° NNE 04:02:38 48° E 04:07:43 10° S visible
11 Jul 3.8 03:33:24 10° NE 03:37:58 29° E 03:42:33 10° SSE visible
12 Jul 4.4 03:09:41 10° NE 03:13:10 18° E 03:16:49 10° SE visible
13 Jul 4.8 02:47:26 10° ENE 02:48:15 10° E 02:49:26 10° E visible
13 Jul 2.2 04:23:46 10° NNE 04:29:06 83° ESE 04:34:22 10° SSW visible
14 Jul 2.9 03:59:24 10° NNE 04:04:32 50° E 04:09:39 10° S visible
15 Jul 3.7 03:35:15 10° NNE 03:39:53 31° E 03:44:32 10° SSE visible
16 Jul 4.4 03:11:29 10° NE 03:15:06 19° E 03:18:52 10° SE visible
17 Jul 4.7 02:48:52 10° ENE 02:50:11 11° E 02:51:52 10° ESE visible
17 Jul 2.2 04:25:41 10° NNE 04:30:59 86° E 04:36:16 10° SSW visible
